SCP
-0 0 0 0 -0 -0 -0 -0 -0 0 0 -0 -0 0 0 0 -0 -0 -0 -0 -0 -0 0 0 0 0 0 -0 -0 -0 -0 -0 -0 -0 -0 -0 -0 -0 -0 -0 -0 -0 -0 -0 -0 -0 -0 -0 -0
0 0 0 0 0 0 -0 -0 0 0 0 -0 -0 0 -0 -0 -0 -0 -0 -0 -0 0 -0 0 0 -0 -0 0 -0 -0 -0 0 0 -0 0 -0 -0 -0 -0 -0 -0 -0 -0 -0 -0 -0 -0 -0 -0
0 0 0 0 0 0 -0 -0 -0 -0 0 -0 -0 0 0 -0 -0 0 0 -0 -0 -0 -0 -0 -0 -0 -0 0 0 -0 -0 0 0 0 0 -0 -0 -0 -0 0 -0 -0 -0 -0 -0 -0 -0 -0 -0
0 0 0 0 0 0 0 -0 -0 -0 -0 0 0 -0 -0 0 0 -0 -0 -0 -0 -0 -0 -0 -0 -0 -0 0 0 0 -0 -0 -0 0 0 0 0 0 0 0 0 0 -0 -0 -0 -0 -0 -0 -0
0 0 0 0 0 0 0 0 -0 -0 -0 -0 0 -0 -0 0 0 -0 0 -0 -0 -0 -0 -0 -0 -0 -0 -0 0 -0 -0 -0 -0 -0 0 0 0 0 0 0 -0 -0 -0 -0 -0 -0 -0 -0 0
0 0 0 0 0 0 0 0 0 0 0 0 0 -0 -0 -0 0 0 0 -0 -0 -0 -0 -0 -0 -0 -0 -0 -0 -0 0 -0 -0 -0 -0 -0 -0 0 0 0 -0 -0 -0 0 -0 -0 -0 -0 0
0 0 0 0 0 0 0 0 0 0 0 0 0 0 -0 -0 0 -0 -0 -0 -0 -0 -0 -0 0 -0 -0 -0 -0 -0 -0 0 0 0 -0 0 0 0 0 0 -0 -0 0 -0 -0 -0 0 -0 -0
0 0 0 0 0 0 0 0 0 0 0 0 0 0 -0 -0 0 0 -0 -0 0 0 0 0 -0 -0 -0 -0 -0 -0 -0 -0 -0 0 0 0 0 0 0 0 0 -0 -0 -0 -0 -0 -0 -0 0
0 0 0 0 0 0 0 0 0 0 0 0 0 0 0 -0 -0 0 0 0 0 -0 0 0 0 -0 -0 -0 -0 -0 0 -0 -0 0 -0 -0 -0 -0 -0 0 -0 -0 -0 -0 -0 -0 0 0 0
0 0 0 0 0 0 0 0 0 0 0 0 0 0 0 -0 -0 -0 -0 -0 -0 -0 -0 -0 0 -0 0 -0 -0 -0 -0 -0 0 -0 0 -0 -0 0 -0 0 -0 -0 -0 -0 -0 0 0 0 0
0 0 0 0 0 0 0 0 0 0 0 0 0 0 -0 -0 -0 0 0 0 -0 -0 0 -0 -0 -0 -0 -0 -0 -0 0 0 0 -0 -0 -0 -0 0 0 -0 -0 -0 -0 0 0 0 0 0 0
0 0 0 0 0 0 0 0 0 0 0 0 0 0 -0 -0 0 0 0 0 0 -0 -0 -0 -0 -0 -0 -0 -0 -0 -0 -0 -0 -0 -0 -0 -0 -0 -0 -0 -0 0 0 0 0 0 0 0 0
0 0 0 0 0 0 0 0 0 0 0 0 0 0 0 0 0 0 0 0 0 0 -0 -0 -0 -0 -0 -0 -0 -0 -0 -0 -0 -0 -0 -0 -0 0 0 0 0 0 0 0 0 0 0 0 0
0 0 0 0 0 0 0 0 0 0 0 0 0 0 0 0 0 0 0 0 0 0 0 -0 -0 -0 -0 -0 -0 -0 -0 -0 -0 -0 -0 -0 0 0 0 0 0 0 0 0 0 0 0 0 0
0 0 0 0 0 0 0 0 0 0 0 -0 0 0 0 0 0 0 0 0 0 0 0 0 -0 -0 -0 -0 -0 -0 0 0 0 0 0 0 0 0 0 0 0 0 0 0 0 0 0 0 0
0 0 0 0 0 0 0 0 0 0 0 0 -0 0 0 0 0 0 0 0 0 0 0 0 0 0 -0 -0 -0 0 0 0 0 0 0 0 0 0 0 0 0 0 0 0 0 0 0 0 0
0 0 0 0 0 0 0 0 0 0 0 0 0 -0 0 0 0 0 0 0 0 0 0 0 0 0 0 0 0 0 0 0 0 0 0 0 0 0 0 0 0 0 0 0 0 0 0 0 0
0 0 0 0 0 0 0 0 0 0 0 0 0 0 0 0 0 0 0 0 0 0 0 0 0 0 0 0 0 0 0 0 0 0 0 0 0 0 0 0 0 0 0 0 0 0 0 0 0
0 0 0 0 0 0 0 0 0 0 0 -0 -0 0 -0 -0 0 0 0 0 0 0 0 0 0 0 0 0 0 0 0 0 0 0 0 0 0 0 0 0 0 0 0 0 0 0 0 0 0
0 0 0 0 0 0 0 0 0 0 0 0 0 0 0 0 0 0 0 0 0 0 0 0 0 0 0 0 0 0 0 0 0 0 0 0 0 0 0 0 0 0 0 0 0 0 0 0 0
0 0 0 0 0 0 0 0 0 0 0 0 0 0 0 0 0 0 0 0 0 0 0 0 0 0 0 0 0 0 0 0 0 0 0 0 0 0 0 0 0 0 0 0 0 0 0 0 0
0 0 0 0 0 0 0 -0 0 0 0 0 0 0 0 0 0 0 0 0 0 0 0 0 0 0 0 0 0 0 0 0 0 0 0 0 0 0 0 0 0 0 0 0 0 0 0 0 0
0 0 0 0 0 0 0 0 -0 0 0 0 0 0 0 0 0 0 0 0 0 0 0 0 0 0 0 0 0 0 0 0 0 0 0 0 0 0 0 0 0 0 0 0 0 0 0 0 0
0 0 0 0 0 0 0 0 -0 -0 0 0 0 0 0 0 0 0 0 0 0 0 0 0 0 0 0 0 0 0 0 0 0 0 0 1 0 0 0 0 0 0 0 0 0 0 0 0 0
0 0 0 0 0 0 0 0 0 0 0 0 0 0 0 0 0 0 0 0 0 0 0 0 0 0 0 0 0 0 0 0 0 1 1 1 1 1 0 0 0 0 0 0 0 0 0 0 0
0 0 0 0 0 0 0 0 0 0 0 0 0 0 0 0 0 0 0 0 0 0 0 0 0 0 0 0 0 0 0 1 1 1 1 1 1 1 0 0 0 0 0 0 0 0 0 0 0
0 0 0 0 0 0 0 0 0 0 0 0 0 0 0 0 0 0 0 0 0 0 0 0 0 0 0 0 0 0 0 1 1 1 1 1 1 1 1 0 0 0 0 0 0 0 0 0 0
0 0 0 0 0 0 0 0 0 0 0 0 0 0 0 0 0 0 0 0 0 0 0 0 0 0 0 0 0 0 0 0 0 0 0 0 0 0 0 0 0 0 0 0 0 0 0 0 0
0 0 0 0 0 0 0 0 0 -0 0 0 0 0 0 0 0 0 0 0 0 0 0 0 0 0 0 0 0 0 0 0 0 0 0 0 0 0 0 0 0 0 0 0 0 0 0 0 0
0 0 0 0 0 0 0 0 0 0 0 0 0 0 0 0 0 0 0 0 0 0 0 0 0 0 0 0 0 0 0 0 0 0 0 0 0 0 0 0 0 0 0 0 0 0 0 0 0
Wind_Speed_500mb
13 18 20 9 11 9 10 11 8 11 12 8 3 8 19 22 16 9 33 26 31 24 17 17 17 17 19 18 18 21 24 22 19 19 19 17 20 20 20 19 16 20 24 25 26 26 27 28 29
12 13 10 10 11 12 12 16 14 11 11 12 9 2 1 12 14 30 29 31 30 22 18 17 20 25 24 21 18 20 25 24 24 24 24 21 17 19 20 20 18 24 27 26 29 30 31 31 30
10 8 10 6 9 1 12 15 20 15 15 15 8 3 7 10 21 31 30 34 32 23 19 20 25 28 27 22 22 21 22 24 27 27 29 30 27 23 23 22 26 27 28 30 30 30 31 31 31
9 6 7 15 12 9 6 14 24 23 11 9 1 10 10 9 29 20 41 34 32 26 23 22 25 27 26 24 25 25 27 27 29 26 24 22 20 24 28 24 24 26 27 28 29 31 32 32 32
5 7 8 10 7 6 3 13 22 20 16 13 10 11 12 19 18 40 39 32 31 28 24 22 24 24 24 23 23 24 24 26 28 25 21 18 18 20 24 25 27 25 21 24 27 29 31 32 32
3 8 10 14 13 6 4 14 21 13 10 13 9 17 17 16 29 39 36 34 27 27 27 23 25 23 23 24 24 23 22 22 23 23 22 22 23 25 24 23 27 23 21 22 23 25 27 29 31
7 10 14 4 12 7 5 19 21 13 11 11 4 21 15 23 33 36 33 33 31 26 22 25 25 26 24 23 23 23 22 22 20 19 19 19 20 20 24 21 22 24 19 19 20 21 23 24 26
16 11 7 10 15 8 12 23 9 9 11 11 9 7 14 35 47 36 33 30 32 30 24 21 26 24 23 23 22 20 20 21 20 17 16 16 17 17 16 19 19 22 19 17 17 18 18 20 21
10 6 15 12 11 8 17 20 10 6 12 10 14 2 11 42 50 44 37 35 33 33 28 26 21 26 19 21 21 19 16 16 16 16 15 13 12 13 12 14 16 20 15 14 14 14 14 16 17
9 11 17 6 7 4 17 22 18 12 16 14 16 12 26 41 53 50 46 42 41 42 45 32 32 24 30 24 22 20 17 14 13 14 13 12 11 10 9 10 12 14 12 10 10 10 10 13 10
14 17 16 15 6 1 11 19 11 16 17 20 25 26 35 42 53 53 45 41 43 41 46 35 37 33 28 28 25 21 17 17 14 12 12 11 9 9 8 8 8 8 6 5 6 7 7 6 6
9 26 17 7 10 6 9 7 14 22 9 3 13 33 39 45 56 56 47 42 41 44 43 41 37 35 33 33 29 24 20 18 16 15 13 11 8 7 7 6 5 6 6 4 2 3 4 4 4
24 10 11 5 11 9 7 8 11 18 25 15 8 33 38 44 48 44 43 41 39 43 45 46 42 39 36 35 35 30 26 23 21 18 16 14 11 8 7 7 7 6 6 5 4 3 1 2 2
11 34 9 15 12 8 8 13 5 18 13 20 21 30 33 41 47 44 46 45 44 42 46 48 48 44 41 36 36 33 32 30 26 23 20 17 15 13 12 10 9 8 7 5 5 5 4 5 5
4 16 14 14 15 13 13 23 23 34 13 19 26 29 33 36 38 49 48 47 47 48 46 49 51 48 44 41 38 38 33 33 30 27 26 24 21 19 17 16 14 14 12 9 8 7 7 7 8
9 8 15 26 26 12 14 35 39 39 26 27 29 32 34 37 44 43 40 43 44 44 50 49 53 53 50 46 43 40 39 36 34 31 30 30 28 25 23 20 18 19 16 14 12 10 10 9 9
6 14 29 20 25 17 22 21 35 29 27 30 29 34 40 41 41 41 42 43 46 46 46 51 57 56 54 50 46 44 42 41 39 37 37 35 33 32 28 25 25 26 20 18 16 15 12 10 12
11 14 30 35 14 17 25 35 22 15 25 37 38 34 36 38 42 43 44 44 45 46 48 52 57 57 56 53 52 47 46 46 43 40 40 40 38 37 34 32 31 26 23 20 19 19 17 18 18
32 36 36 19 12 12 28 36 35 42 39 37 35 38 36 41 36 39 42 44 45 47 50 55 54 56 57 59 60 58 56 53 51 48 46 41 39 37 34 36 29 26 27 24 20 18 17 18 18
22 29 26 7 5 9 25 38 32 35 45 45 43 41 39 38 37 40 44 49 51 51 53 56 57 59 62 63 63 62 60 57 54 52 52 48 43 41 38 39 34 33 32 32 28 27 25 22 22
28 31 25 20 7 19 23 45 46 48 55 48 47 44 46 43 44 45 50 57 56 61 61 60 63 64 66 67 64 63 57 55 55 53 53 54 48 44 38 38 40 40 37 38 36 38 37 34 30
35 15 16 12 8 13 1 15 24 15 30 42 53 55 56 55 47 45 52 57 64 64 65 64 64 66 68 67 69 70 72 69 65 59 56 52 47 44 41 41 38 42 42 45 45 42 44 44 42
18 24 19 14 17 22 29 14 15 22 29 30 41 52 61 63 66 69 61 65 65 63 65 65 66 69 68 70 71 76 75 72 67 60 58 56 54 52 46 44 39 41 40 42 46 44 45 46 48
26 21 14 9 12 17 32 28 15 22 17 15 27 42 48 54 58 62 67 66 68 66 67 69 71 71 72 73 75 77 78 74 72 70 65 58 53 54 53 49 48 46 44 37 38 48 44 44 43
31 32 10 10 12 14 7 16 27 10 7 19 25 23 22 30 41 52 59 71 71 66 73 75 77 77 78 79 79 79 79 76 74 73 70 64 58 58 56 57 58 56 48 45 39 43 47 45 42
42 38 13 16 12 8 3 17 7 17 16 17 22 27 26 23 21 38 40 49 61 68 66 74 80 79 82 81 82 81 79 81 79 77 76 70 63 60 55 58 59 59 52 45 41 39 42 42 42
42 36 9 10 4 1 12 16 22 30 27 24 24 17 21 27 26 25 25 43 56 59 61 63 70 77 82 84 82 82 83 85 85 81 77 71 63 60 59 59 61 60 55 49 42 39 41 41 39
34 32 14 10 14 12 12 16 18 12 12 4 5 5 3 4 11 19 26 32 33 43 52 57 64 72 74 78 83 83 84 86 84 81 79 73 63 64 60 58 61 59 60 48 39 39 40 40 38
21 33 14 15 6 5 5 9 6 18 7 4 4 7 11 11 13 15 23 31 37 41 42 45 53 63 71 75 78 80 79 78 75 74 71 68 68 66 66 64 63 55 58 48 41 42 43 41 44
28 32 26 12 11 8 4 15 11 17 11 1 4 5 14 22 19 13 16 19 29 34 37 38 40 45 51 56 59 59 60 62 62 64 60 64 63 60 60 58 56 57 55 51 42 45 49 44 47
Wind_Direction_500mb
353 345 337 297 236 247 132 131 97 127 143 94 104 298 16 24 4 55 138 129 130 147 150 129 122 128 131 129 116 143 157 148 120 113 100 105 112 113 104 97 95 91 89 89 85 83 82 82 80
2 347 317 274 255 205 125 131 163 148 88 137 141 248 275 74 63 125 134 138 132 135 136 125 122 120 112 108 99 132 153 157 154 131 111 102 101 107 111 108 102 93 88 91 83 75 75 77 77
1 4 284 277 277 242 132 172 134 125 140 155 153 64 9 66 120 130 147 140 132 140 150 134 126 123 118 109 95 102 118 146 150 151 143 131 119 106 106 110 96 93 95 88 80 75 76 77 78
348 241 231 243 201 67 62 163 135 142 148 163 153 123 90 90 136 143 141 140 137 143 151 133 134 135 127 118 107 106 106 116 145 149 149 146 140 121 109 104 105 96 93 86 81 77 81 80 78
312 233 238 243 146 110 94 137 159 166 151 164 178 115 110 141 135 142 143 143 144 143 139 136 137 140 124 117 110 107 108 114 123 135 148 150 150 140 118 111 111 102 101 92 83 78 77 76 76
262 277 224 208 181 129 151 179 170 180 148 133 180 134 129 151 148 150 149 148 147 151 141 145 140 138 134 125 115 108 106 111 114 118 121 124 128 133 135 107 115 117 108 94 85 79 76 74 74
7 246 240 266 162 183 139 181 181 182 155 152 124 151 138 159 158 157 153 152 148 153 155 154 150 143 136 130 122 117 112 114 114 113 112 111 112 120 120 113 115 122 114 97 87 81 76 75 75
146 282 200 223 192 160 144 166 199 187 122 118 156 164 168 180 165 164 160 157 154 156 161 158 163 152 145 139 133 126 117 115 114 108 104 105 106 112 123 118 119 125 117 104 90 82 78 77 76
127 346 224 209 208 164 160 181 176 171 148 159 175 33 107 178 180 163 168 166 165 162 167 167 177 159 159 155 147 137 128 120 118 115 108 103 97 100 111 123 121 126 114 102 90 81 79 79 75
168 217 226 278 226 192 176 200 169 181 174 193 179 192 154 177 183 174 177 177 176 181 165 180 170 183 174 171 164 157 148 138 130 128 118 119 127 134 124 118 110 122 122 110 90 75 78 71 69
186 234 198 250 269 302 176 203 189 225 206 213 197 182 171 180 188 189 188 187 191 188 181 181 181 179 195 186 179 175 169 167 161 153 147 138 132 140 141 138 141 141 138 106 87 70 71 80 84
198 236 263 176 184 153 201 152 214 221 209 213 214 188 182 189 195 198 195 191 193 195 198 191 188 188 196 192 196 189 184 187 182 175 170 162 150 145 153 163 170 176 180 179 154 63 56 62 61
227 190 224 180 156 156 158 203 254 238 244 257 208 190 201 196 200 201 202 197 199 202 203 201 198 197 197 202 202 203 198 197 199 196 191 183 184 182 181 190 201 206 213 217 220 237 335 9 13
244 228 217 220 218 202 212 220 238 223 210 211 205 203 205 206 202 196 203 204 201 205 207 208 205 205 206 210 209 211 210 207 206 208 207 207 208 210 213 215 217 224 228 232 248 272 300 317 326
160 205 202 200 202 226 206 239 234 238 210 211 214 208 209 213 209 208 207 205 206 209 210 211 210 212 211 213 217 216 220 217 217 217 218 219 222 223 225 229 233 234 235 242 249 261 276 294 308
203 238 205 216 197 195 195 250 224 231 228 231 217 212 210 215 215 217 213 210 210 209 211 214 218 217 216 218 221 223 227 230 227 226 233 230 230 232 230 233 238 239 242 245 254 260 267 274 278
265 207 207 192 207 202 201 254 245 225 229 242 237 222 212 210 212 214 214 212 209 209 209 214 222 221 223 223 224 228 231 235 236 235 234 239 236 236 234 231 234 251 237 239 242 255 265 256 275
160 225 214 221 182 213 221 244 250 246 240 248 245 235 222 222 214 211 215 214 211 208 209 215 223 223 225 227 230 231 234 237 238 239 239 240 242 240 240 239 248 254 241 251 251 250 262 273 276
182 201 225 202 123 234 236 255 250 242 245 249 250 238 228 228 224 216 211 212 211 210 208 220 220 222 225 227 229 231 234 239 240 240 243 244 245 249 243 244 254 247 247 250 251 256 264 271 279
227 215 221 153 146 244 268 265 255 245 242 240 241 245 238 234 220 212 206 215 215 213 217 218 219 223 228 231 233 236 238 241 244 247 247 244 250 246 243 246 247 255 254 256 256 264 271 271 271
211 208 220 224 172 231 268 273 259 244 240 234 240 240 243 237 226 216 209 218 220 221 221 220 223 226 228 230 232 235 237 241 238 237 246 243 246 242 245 243 248 251 250 255 260 264 264 263 261
202 223 226 184 240 255 176 287 278 269 224 218 227 231 234 233 227 225 224 222 223 227 226 228 227 227 227 230 230 236 237 237 242 243 246 250 250 249 243 247 250 249 254 254 257 260 264 262 260
204 164 177 229 254 276 254 263 266 243 245 235 234 233 238 233 230 232 222 235 233 228 229 229 229 229 230 231 233 236 241 243 247 246 248 247 249 248 245 248 249 250 259 267 258 257 258 262 261
125 140 145 201 256 258 245 231 255 250 269 238 254 251 244 243 236 233 232 234 237 233 230 231 231 233 234 233 236 236 243 243 243 244 244 244 247 247 242 242 242 248 254 261 264 261 259 260 260
170 160 161 206 208 243 28 237 245 301 301 289 269 270 264 254 246 237 234 231 238 239 237 234 234 235 235 234 235 238 240 242 243 244 243 245 246 242 238 237 239 247 256 260 257 264 259 257 259
193 182 174 193 200 213 114 235 261 249 259 269 270 274 259 253 247 238 229 236 241 241 240 236 236 236 239 240 240 240 240 240 240 241 243 243 244 247 241 240 240 244 247 246 254 262 259 257 259
190 201 150 105 37 322 217 247 254 243 274 291 246 257 282 256 248 255 252 245 246 249 250 247 243 243 241 241 243 242 242 241 238 239 241 243 242 243 241 239 240 242 242 242 255 260 252 253 253
188 165 160 206 178 224 225 248 240 174 231 65 193 283 3 290 266 254 251 250 246 244 248 252 253 251 248 246 245 244 241 241 241 238 238 238 237 236 240 239 240 238 241 240 254 249 248 248 249
182 182 197 182 205 232 302 253 112 214 167 196 19 356 348 342 320 283 257 253 251 248 248 250 250 245 243 239 238 240 239 239 240 243 243 237 240 240 242 241 239 233 236 236 249 248 247 249 249
198 188 186 179 190 243 19 262 148 151 168 176 63 29 18 21 12 346 313 285 265 257 252 249 249 245 240 239 240 241 241 244 244 244 244 246 245 243 242 239 233 232 226 229 237 246 247 227 252
Wind_Speed_850mb
13 18 20 9 11 9 10 11 8 11 12 8 3 8 19 22 16 9 33 26 31 24 17 17 17 17 19 18 18 21 24 22 19 19 19 17 20 20 20 19 16 20 24 25 26 26 27 28 29
12 13 10 10 11 12 12 16 14 11 11 12 9 2 1 12 14 30 29 31 30 22 18 17 20 25 24 21 18 20 25 24 24 24 24 21 17 19 20 20 18 24 27 26 29 30 31 31 30
10 8 10 6 9 1 12 15 20 15 15 15 8 3 7 10 21 31 30 34 32 23 19 20 25 28 27 22 22 21 22 24 27 27 29 30 27 23 23 22 26 27 28 30 30 30 31 31 31
9 6 7 15 12 9 6 14 24 23 11 9 1 10 10 9 29 20 41 34 32 26 23 22 25 27 26 24 25 25 27 27 29 26 24 22 20 24 28 24 24 26 27 28 29 31 32 32 32
5 7 8 10 7 6 3 13 22 20 16 13 10 11 12 19 18 40 39 32 31 28 24 22 24 24 24 23 23 24 24 26 28 25 21 18 18 20 24 25 27 25 21 24 27 29 31 32 32
3 8 10 14 13 6 4 14 21 13 10 13 9 17 17 16 29 39 36 34 27 27 27 23 25 23 23 24 24 23 22 22 23 23 22 22 23 25 24 23 27 23 21 22 23 25 27 29 31
7 10 14 4 12 7 5 19 21 13 11 11 4 21 15 23 33 36 33 33 31 26 22 25 25 26 24 23 23 23 22 22 20 19 19 19 20 20 24 21 22 24 19 19 20 21 23 24 26
16 11 7 10 15 8 12 23 9 9 11 11 9 7 14 35 47 36 33 30 32 30 24 21 26 24 23 23 22 20 20 21 20 17 16 16 17 17 16 19 19 22 19 17 17 18 18 20 21
10 6 15 12 11 8 17 20 10 6 12 10 14 2 11 42 50 44 37 35 33 33 28 26 21 26 19 21 21 19 16 16 16 16 15 13 12 13 12 14 16 20 15 14 14 14 14 16 17
9 11 17 6 7 4 17 22 18 12 16 14 16 12 26 41 53 50 46 42 41 42 45 32 32 24 30 24 22 20 17 14 13 14 13 12 11 10 9 10 12 14 12 10 10 10 10 13 10
14 17 16 15 6 1 11 19 11 16 17 20 25 26 35 42 53 53 45 41 43 41 46 35 37 33 28 28 25 21 17 17 14 12 12 11 9 9 8 8 8 8 6 5 6 7 7 6 6
9 26 17 7 10 6 9 7 14 22 9 3 13 33 39 45 56 56 47 42 41 44 43 41 37 35 33 33 29 24 20 18 16 15 13 11 8 7 7 6 5 6 6 4 2 3 4 4 4
24 10 11 5 11 9 7 8 11 18 25 15 8 33 38 44 48 44 43 41 39 43 45 46 42 39 36 35 35 30 26 23 21 18 16 14 11 8 7 7 7 6 6 5 4 3 1 2 2
11 34 9 15 12 8 8 13 5 18 13 20 21 30 33 41 47 44 46 45 44 42 46 48 48 44 41 36 36 33 32 30 26 23 20 17 15 13 12 10 9 8 7 5 5 5 4 5 5
4 16 14 14 15 13 13 23 23 34 13 19 26 29 33 36 38 49 48 47 47 48 46 49 51 48 44 41 38 38 33 33 30 27 26 24 21 19 17 16 14 14 12 9 8 7 7 7 8
9 8 15 26 26 12 14 35 39 39 26 27 29 32 34 37 44 43 40 43 44 44 50 49 53 53 50 46 43 40 39 36 34 31 30 30 28 25 23 20 18 19 16 14 12 10 10 9 9
6 14 29 20 25 17 22 21 35 29 27 30 29 34 40 41 41 41 42 43 46 46 46 51 57 56 54 50 46 44 42 41 39 37 37 35 33 32 28 25 25 26 20 18 16 15 12 10 12
11 14 30 35 14 17 25 35 22 15 25 37 38 34 36 38 42 43 44 44 45 46 48 52 57 57 56 53 52 47 46 46 43 40 40 40 38 37 34 32 31 26 23 20 19 19 17 18 18
32 36 36 19 12 12 28 36 35 42 39 37 35 38 36 41 36 39 42 44 45 47 50 55 54 56 57 59 60 58 56 53 51 48 46 41 39 37 34 36 29 26 27 24 20 18 17 18 18
22 29 26 7 5 9 25 38 32 35 45 45 43 41 39 38 37 40 44 49 51 51 53 56 57 59 62 63 63 62 60 57 54 52 52 48 43 41 38 39 34 33 32 32 28 27 25 22 22
28 31 25 20 7 19 23 45 46 48 55 48 47 44 46 43 44 45 50 57 56 61 61 60 63 64 66 67 64 63 57 55 55 53 53 54 48 44 38 38 40 40 37 38 36 38 37 34 30
35 15 16 12 8 13 1 15 24 15 30 42 53 55 56 55 47 45 52 57 64 64 65 64 64 66 68 67 69 70 72 69 65 59 56 52 47 44 41 41 38 42 42 45 45 42 44 44 42
18 24 19 14 17 22 29 14 15 22 29 30 41 52 61 63 66 69 61 65 65 63 65 65 66 69 68 70 71 76 75 72 67 60 58 56 54 52 46 44 39 41 40 42 46 44 45 46 48
26 21 14 9 12 17 32 28 15 22 17 15 27 42 48 54 58 62 67 66 68 66 67 69 71 71 72 73 75 77 78 74 72 70 65 58 53 54 53 49 48 46 44 37 38 48 44 44 43
31 32 10 10 12 14 7 16 27 10 7 19 25 23 22 30 41 52 59 71 71 66 73 75 77 77 78 79 79 79 79 76 74 73 70 64 58 58 56 57 58 56 48 45 39 43 47 45 42
42 38 13 16 12 8 3 17 7 17 16 17 22 27 26 23 21 38 40 49 61 68 66 74 80 79 82 81 82 81 79 81 79 77 76 70 63 60 55 58 59 59 52 45 41 39 42 42 42
42 36 9 10 4 1 12 16 22 30 27 24 24 17 21 27 26 25 25 43 56 59 61 63 70 77 82 84 82 82 83 85 85 81 77 71 63 60 59 59 61 60 55 49 42 39 41 41 39
34 32 14 10 14 12 12 16 18 12 12 4 5 5 3 4 11 19 26 32 33 43 52 57 64 72 74 78 83 83 84 86 84 81 79 73 63 64 60 58 61 59 60 48 39 39 40 40 38
21 33 14 15 6 5 5 9 6 18 7 4 4 7 11 11 13 15 23 31 37 41 42 45 53 63 71 75 78 80 79 78 75 74 71 68 68 66 66 64 63 55 58 48 41 42 43 41 44
28 32 26 12 11 8 4 15 11 17 11 1 4 5 14 22 19 13 16 19 29 34 37 38 40 45 51 56 59 59 60 62 62 64 60 64 63 60 60 58 56 57 55 51 42 45 49 44 47
Wind_Direction_850mb
353 345 337 297 236 247 132 131 97 127 143 94 104 298 16 24 4 55 138 129 130 147 150 129 122 128 131 129 116 143 157 148 120 113 100 105 112 113 104 97 95 91 89 89 85 83 82 82 80
2 347 317 274 255 205 125 131 163 148 88 137 141 248 275 74 63 125 134 138 132 135 136 125 122 120 112 108 99 132 153 157 154 131 111 102 101 107 111 108 102 93 88 91 83 75 75 77 77
1 4 284 277 277 242 132 172 134 125 140 155 153 64 9 66 120 130 147 140 132 140 150 134 126 123 118 109 95 102 118 146 150 151 143 131 119 106 106 110 96 93 95 88 80 75 76 77 78
348 241 231 243 201 67 62 163 135 142 148 163 153 123 90 90 136 143 141 140 137 143 151 133 134 135 127 118 107 106 106 116 145 149 149 146 140 121 109 104 105 96 93 86 81 77 81 80 78
312 233 238 243 146 110 94 137 159 166 151 164 178 115 110 141 135 142 143 143 144 143 139 136 137 140 124 117 110 107 108 114 123 135 148 150 150 140 118 111 111 102 101 92 83 78 77 76 76
262 277 224 208 181 129 151 179 170 180 148 133 180 134 129 151 148 150 149 148 147 151 141 145 140 138 134 125 115 108 106 111 114 118 121 124 128 133 135 107 115 117 108 94 85 79 76 74 74
7 246 240 266 162 183 139 181 181 182 155 152 124 151 138 159 158 157 153 152 148 153 155 154 150 143 136 130 122 117 112 114 114 113 112 111 112 120 120 113 115 122 114 97 87 81 76 75 75
146 282 200 223 192 160 144 166 199 187 122 118 156 164 168 180 165 164 160 157 154 156 161 158 163 152 145 139 133 126 117 115 114 108 104 105 106 112 123 118 119 125 117 104 90 82 78 77 76
127 346 224 209 208 164 160 181 176 171 148 159 175 33 107 178 180 163 168 166 165 162 167 167 177 159 159 155 147 137 128 120 118 115 108 103 97 100 111 123 121 126 114 102 90 81 79 79 75
168 217 226 278 226 192 176 200 169 181 174 193 179 192 154 177 183 174 177 177 176 181 165 180 170 183 174 171 164 157 148 138 130 128 118 119 127 134 124 118 110 122 122 110 90 75 78 71 69
186 234 198 250 269 302 176 203 189 225 206 213 197 182 171 180 188 189 188 187 191 188 181 181 181 179 195 186 179 175 169 167 161 153 147 138 132 140 141 138 141 141 138 106 87 70 71 80 84
198 236 263 176 184 153 201 152 214 221 209 213 214 188 182 189 195 198 195 191 193 195 198 191 188 188 196 192 196 189 184 187 182 175 170 162 150 145 153 163 170 176 180 179 154 63 56 62 61
227 190 224 180 156 156 158 203 254 238 244 257 208 190 201 196 200 201 202 197 199 202 203 201 198 197 197 202 202 203 198 197 199 196 191 183 184 182 181 190 201 206 213 217 220 237 335 9 13
244 228 217 220 218 202 212 220 238 223 210 211 205 203 205 206 202 196 203 204 201 205 207 208 205 205 206 210 209 211 210 207 206 208 207 207 208 210 213 215 217 224 228 232 248 272 300 317 326
160 205 202 200 202 226 206 239 234 238 210 211 214 208 209 213 209 208 207 205 206 209 210 211 210 212 211 213 217 216 220 217 217 217 218 219 222 223 225 229 233 234 235 242 249 261 276 294 308
203 238 205 216 197 195 195 250 224 231 228 231 217 212 210 215 215 217 213 210 210 209 211 214 218 217 216 218 221 223 227 230 227 226 233 230 230 232 230 233 238 239 242 245 254 260 267 274 278
265 207 207 192 207 202 201 254 245 225 229 242 237 222 212 210 212 214 214 212 209 209 209 214 222 221 223 223 224 228 231 235 236 235 234 239 236 236 234 231 234 251 237 239 242 255 265 256 275
160 225 214 221 182 213 221 244 250 246 240 248 245 235 222 222 214 211 215 214 211 208 209 215 223 223 225 227 230 231 234 237 238 239 239 240 242 240 240 239 248 254 241 251 251 250 262 273 276
182 201 225 202 123 234 236 255 250 242 245 249 250 238 228 228 224 216 211 212 211 210 208 220 220 222 225 227 229 231 234 239 240 240 243 244 245 249 243 244 254 247 247 250 251 256 264 271 279
227 215 221 153 146 244 268 265 255 245 242 240 241 245 238 234 220 212 206 215 215 213 217 218 219 223 228 231 233 236 238 241 244 247 247 244 250 246 243 246 247 255 254 256 256 264 271 271 271
211 208 220 224 172 231 268 273 259 244 240 234 240 240 243 237 226 216 209 218 220 221 221 220 223 226 228 230 232 235 237 241 238 237 246 243 246 242 245 243 248 251 250 255 260 264 264 263 261
202 223 226 184 240 255 176 287 278 269 224 218 227 231 234 233 227 225 224 222 223 227 226 228 227 227 227 230 230 236 237 237 242 243 246 250 250 249 243 247 250 249 254 254 257 260 264 262 260
204 164 177 229 254 276 254 263 266 243 245 235 234 233 238 233 230 232 222 235 233 228 229 229 229 229 230 231 233 236 241 243 247 246 248 247 249 248 245 248 249 250 259 267 258 257 258 262 261
125 140 145 201 256 258 245 231 255 250 269 238 254 251 244 243 236 233 232 234 237 233 230 231 231 233 234 233 236 236 243 243 243 244 244 244 247 247 242 242 242 248 254 261 264 261 259 260 260
170 160 161 206 208 243 28 237 245 301 301 289 269 270 264 254 246 237 234 231 238 239 237 234 234 235 235 234 235 238 240 242 243 244 243 245 246 242 238 237 239 247 256 260 257 264 259 257 259
193 182 174 193 200 213 114 235 261 249 259 269 270 274 259 253 247 238 229 236 241 241 240 236 236 236 239 240 240 240 240 240 240 241 243 243 244 247 241 240 240 244 247 246 254 262 259 257 259
190 201 150 105 37 322 217 247 254 243 274 291 246 257 282 256 248 255 252 245 246 249 250 247 243 243 241 241 243 242 242 241 238 239 241 243 242 243 241 239 240 242 242 242 255 260 252 253 253
188 165 160 206 178 224 225 248 240 174 231 65 193 283 3 290 266 254 251 250 246 244 248 252 253 251 248 246 245 244 241 241 241 238 238 238 237 236 240 239 240 238 241 240 254 249 248 248 249
182 182 197 182 205 232 302 253 112 214 167 196 19 356 348 342 320 283 257 253 251 248 248 250 250 245 243 239 238 240 239 239 240 243 243 237 240 240 242 241 239 233 236 236 249 248 247 249 249
198 188 186 179 190 243 19 262 148 151 168 176 63 29 18 21 12 346 313 285 265 257 252 249 249 245 240 239 240 241 241 244 244 244 244 246 245 243 242 239 233 232 226 229 237 246 247 227 252